Content
SEND FEEDBACK

Daily
Averages
Monthly
Summary
Spain

A CORUŅA - DOWNTOWN, SPAIN


Home > Europe > Spain
Elevation: 220 feet     Latitude: 43 22N     Longitude: 008 25W

WEATHER
 
SELECT A DAY
Number of Records: 270,193;   Date Range: 7/1/96 - 8/30/14
 
SHARE

PRINT THIS DATA

[ ← Previous Day ]
WEATHER ALMANAC - MAY 12, 2013
[ Next Day → ]
[ °C ]   °F
Weather ElementAverageHighLow
Temperature55.6 °F64.4 °F (3:30 pm)42.8 °F (6:30 am)
Dewpoint49 °F53.6 °F (3:30 pm)42.8 °F (6:00 am)
Humidity79.9 %100 % (5:30 am)63 % (11:30 am)
Barometer30.29 in30.33 in (12:30 am)30.24 in (7:30 pm)
Wind Speed8.3 mph16.1 mph (4:00 pm)
Wind Gust27.6 mph (3:30 pm)
Weather ElementAverage
Visibility5 mi
Wind DirectionSSW (204.4 °)

Weather ElementTotal
Precipitation---
Heating Degree Days11.4 (Base 65)
Growing Degree Days3.6 (Base 50)
Averaged from 43 records on May 12, 2013
WEATHER CONDITIONS BREAKOUT
WIND DIRECTION BREAKOUT
WEATHER BY HOUR - MAY 12, 2013
[ °C ]   °F
Local TimeTemperatureDewpointHumidityBarometerVisibilityWind DirectionWind SpeedGust SpeedPrecipitationEventsConditions
12:30 AM53.6 °F48.2 °F82 %30.33 in6.2 miVariable2.3 mphPartly Cloudy
1:00 AM53.6 °F48.2 °F82 %30.33 in6.2 miVariable1.2 mphScattered Clouds
5:30 AM44.6 °F44.6 °F100 %30.30 in1.2 miSouth (190°)3.5 mphFogPatches of Fog
6:00 AM44.6 °F42.8 °F93 %30.30 in6.2 miVariable2.3 mphFogPatches of Fog
6:08 AM44.6 °F42.8 °F93 %30.30 in0.2 miVariable2.3 mphFogFog
6:30 AM42.8 °F42.8 °F100 %30.30 in0.1 miSouth (180°)3.5 mphFogFog
7:00 AM42.8 °F42.8 °F100 %30.30 in0.5 miSouth (190°)4.6 mphFogPatches of Fog
7:07 AM42.8 °F42.8 °F100 %30.30 in6.2 miVariable2.3 mphFogPatches of Fog
7:20 AM42.8 °F42.8 °F100 %30.30 in0.2 miVariable2.3 mphFogPatches of Fog
7:30 AM42.8 °F42.8 °F100 %30.30 in0.2 miVariable2.3 mphFogFog
8:00 AM42.8 °F42.8 °F100 %30.30 in0.1 miSouth (180°)3.5 mphFogFog
8:17 AM44.6 °F44.6 °F100 %30.30 in6.2 miVariable2.3 mphFogPatches of Fog
8:30 AM44.6 °F44.6 °F100 %30.30 in6.2 miVariable2.3 mphFogPatches of Fog
9:00 AM48.2 °F46.4 °F93 %30.30 in6.2 miVariable2.3 mphFogPartly Cloudy
9:30 AM51.8 °F50.0 °F94 %30.30 in6.2 miVariable1.2 mphPartly Cloudy
10:00 AM55.4 °F51.8 °F88 %30.30 in6.2 miVariable1.2 mphPartly Cloudy
10:30 AM59.0 °F50.0 °F72 %30.33 in6.2 miVariable1.2 mphPartly Cloudy
11:00 AM59.0 °F50.0 °F72 %30.33 in6.2 miNorth (10°)4.6 mphScattered Clouds
11:30 AM60.8 °F48.2 °F63 %30.30 in6.2 miNNE (30°)9.2 mphPartly Cloudy
12:00 PM62.6 °F50.0 °F63 %30.30 in6.2 miVariable9.2 mphScattered Clouds
12:30 PM60.8 °F51.8 °F72 %30.30 in6.2 miNorth (350°)10.4 mphScattered Clouds
1:00 PM62.6 °F51.8 °F68 %30.30 in6.2 miNorth (350°)12.7 mphPartly Cloudy
1:30 PM62.6 °F51.8 °F68 %30.30 in6.2 miNorth (350°)13.8 mphPartly Cloudy
2:00 PM62.6 °F51.8 °F68 %30.30 in6.2 miNorth (350°)13.8 mphPartly Cloudy
2:30 PM62.6 °F51.8 °F68 %30.27 in6.2 miNorth (350°)15.0 mphPartly Cloudy
3:00 PM62.6 °F51.8 °F68 %30.27 in6.2 miNorth (350°)13.8 mphPartly Cloudy
3:30 PM64.4 °F53.6 °F68 %30.27 in6.2 miNorth (350°)15.0 mph27.6 mphPartly Cloudy
4:00 PM62.6 °F51.8 °F68 %30.27 in6.2 miNorth (350°)16.1 mph27.6 mphPartly Cloudy
4:30 PM64.4 °F51.8 °F64 %30.27 in6.2 miNorth (350°)13.8 mph25.3 mphPartly Cloudy
5:00 PM62.6 °F51.8 °F68 %30.27 in6.2 miNorth (350°)15.0 mphPartly Cloudy
5:30 PM62.6 °F50.0 °F63 %30.27 in6.2 miNorth (350°)16.1 mphPartly Cloudy
6:00 PM62.6 °F51.8 °F68 %30.27 in6.2 miNorth (350°)16.1 mphPartly Cloudy
6:30 PM62.6 °F51.8 °F68 %30.27 in6.2 miNorth (350°)15.0 mphPartly Cloudy
7:00 PM60.8 °F51.8 °F72 %30.27 inNorth (350°)16.1 mphClear
7:30 PM60.8 °F51.8 °F72 %30.24 inNorth (350°)15.0 mphClear
8:00 PM60.8 °F51.8 °F72 %30.24 inNorth (350°)13.8 mphClear
8:30 PM60.8 °F51.8 °F72 %30.24 inNNW (340°)12.7 mphClear
9:00 PM59.0 °F51.8 °F77 %30.24 inNNW (340°)9.2 mphClear
9:30 PM59.0 °F51.8 °F77 %30.27 inNNW (340°)10.4 mph21.9 mphClear
10:00 PM59.0 °F53.6 °F82 %30.27 inNNW (340°)10.4 mph21.9 mphClear
10:30 PM57.2 °F51.8 °F82 %30.27 inNNW (340°)6.9 mphClear
11:00 PM57.2 °F50.0 °F77 %30.27 inNorth (350°)3.5 mphClear
11:30 PM57.2 °F50.0 °F77 %30.30 inNorth (360°)8.1 mphClear
Hourly data recorded from LECO, located miles away from A Coruņa - Downtown, Spain







STORIES FROM OUR PARTNERS